Location: Hamayl? Da??
(36.7028°N, 30.1716°E)
Time: 13:55:56
(UTC+00:00)

ARGOS Delta rocket - Pass Details

Date: 04 August 2024
Orbit: 632 x 831 km, 96.5° (Epoch: 11 September)

Event Time Altitude Azimuth Distance (km) Brightness Sun altitude
Exits shadow 17:58:19 - 163° (SSE) 2,722 6.4 -10.9°
Reaches altitude 10° 17:59:22 10° 163° (SSE) 2,304 6.0 -11.0°
Maximum altitude 18:04:29 77° 77° (ENE) 820 4.0 -11.9°
Drops below altitude 10° 18:09:52 10° 353° (N) 2,420 7.2 -12.8°
Sets 18:12:16 0° 352° (N) 3,370 8.0 -13.2°
